Погода в Новокуйбышевске

Россия / Самарская область     53°05′58″N   49°56′51″E
темп.,
°C
ветер,
м/с
пор.,
м/с
влажн.,
%
обл.,
%
осадки,
мм/ч
давл.,
гПа
погр.,
м
20 апреля, вт
вт2001:00+5вюв71355100 0.0 1026957
04:00+4в7135198 0.0 1027751
07:00+2в7145464 0.0 1028668
10:00+6вюв8114264 0.0 1028961
13:00+9вюв911385 0.0 10271264
16:00+10вюв8103713 0.0 10271434
19:00+8вюв81243100 0.0 1025943
22:00+6вюв81545100 0.0 1026715
21 апреля, ср
ср2101:00+5вюв81648100 0.0 1026678
04:00+5юв91749100 0.0 1025671
07:00+4юв81751100 0.0 1024741
10:00+4юв81653100 0.1 1024804
13:00+3юв91878100 2.5 1024759
16:00+3юв81888100 3.1 1024780
19:00+2ююв71695100 3.2 1024737
22:00+3ююв61492100 4.3 1024721
22 апреля, чт
чт2201:00+4ююв61292100 0.3 1024540
04:00+4ююв51194100 0.3 1024433
07:00+5ююв61293100 0.0 1025506
10:00+7ю6879100 0.0 1026603
13:00+10ююв6770100 0.0 1026935
16:00+9ююв6776100 0.0 1026779
19:00+7ююв5780100 0.0 1027557
22:00+4ююв49898 0.0 1027337
23 апреля, пт
пт2301:00+5ююв4687100 0.0 1026487
04:00+6ююв3485100 0.0 1026283
07:00+6юв2488100 0.0 1027290
10:00+8вюв2378100 0.0 1026523
13:00+13в3463100 0.0 10251013
16:00+13в4461100 0.0 10241175
19:00+12всв4668100 0.0 1023338
22:00+10св3779100 0.0 1022197
24 апреля, сб
сб2401:00+8св3683100 0.0 1020200
04:00+7св3685100 0.0 1018196
07:00+8в3589100 0.0 1017293
10:00+8всв3584100 0.0 1016574
13:00+8ссв2480100 0.0 1016819
16:00+9св127799 0.1 1015529
19:00+9вюв007896 0.0 101541
22:00+7юв22885 0.0 101419